Find Qianfan Jigui 01-05

NORAD ID: 60383 Int'l Des: 2024-140 Owner: YUANX Country: CN Constellation: qianfan operational
LEOCIRCULARPOLAR

Live Position

Loading 3D Globe...

About Qianfan Jigui 01-05

Description loading...

Upcoming Passes

Passes for default location (London). Set your location on the main map for personalized predictions.

Altitude History

Loading altitude history...

Two-Line Element Set

1 60383U 24140E 26107.29212663 .00000051 00000-0 60980-4 0 9991
2 60383 88.9656 286.2338 0014508 201.7700 158.2837 13.51005371 84250
Epoch: Apr 17, 2026 • Age: 11 hours

Current Status

Altitude 1071.5 km
Velocity 7.32 km/s
Sub-Earth Point 46.58°N, 15.83°W
Launch Date Aug 6, 2024
Age 1.6 years
Type internet

Technical Details

Classification Payload
Mass 267.00 kg
Dry Mass 267.00 kg
Total Mass 267.00 kg
Length 0.30 m
Diameter 3.00 m
Span 10.00 m
Shape Box+pan
Manufacturer SECM
Bus Type Qianfan
Phase Status In Orbit
Owner/State YUANX/CN

Most Searched